Regional Weather Roundup
Issued by NWS

Home | Current Version | Previous Version | Text Only | Print | Product List | Glossary Off
Versions: 1 2 3 4 5 6 7 8 9 10 11 12 13 14 15 16 17 18 19 20 21 22 23 24 25 26 27 28 29 30 31 32 33 34 35 36 37 38 39 40 41 42 43 44 45 46 47 48 49 50

000
ASUS43 KFSD 261302
RWRSD

WEATHER ROUNDUP FOR SOUTH DAKOTA
NATIONAL WEATHER SERVICE SIOUX FALLS SD
800 AM CDT SUN APR 26 2015

NOTE: "FAIR" INDICATES FEW OR NO CLOUDS BELOW 12,000 FEET WITH NO
SIGNIFICANT WEATHER AND/OR OBSTRUCTIONS TO VISIBILITY.


SDZ001>005-009-010-012>017-261400-
NORTHWEST AND NORTH CENTRAL SOUTH DAKOTA

CITY           SKY/WX    TMP DP  RH WIND       PRES   REMARKS
BUFFALO          N/A     43  40  89 NE10      29.91R
FAITH            N/A     48  42  80 E7        29.95R
MOBRIDGE       CLOUDY    51  42  71 S10       29.98R
$$

SDZ012>016-024>037-041>051-057-063-072>074-261400-
SOUTHWEST AND SOUTH CENTRAL SOUTH DAKOTA

CITY           SKY/WX    TMP DP  RH WIND       PRES   REMARKS
RAPID CTY ARPT CLOUDY    43  41  93 N16       29.93R
PIERRE         CLOUDY    48  42  80 SE10      29.99R
CUSTER         CLOUDY    41  39  93 NE6       29.91S
ELLSWORTH AFB  CLOUDY    43  43 100 N12       29.93R
PHILIP         CLOUDY    50  45  83 SE8       29.95R
PINE RIDGE     CLOUDY    47  43  86 SE13      29.91R
WINNER         PTSUNNY   48  42  80 SE6       30.00R
$$

SDZ004>011-016>023-039-040-261400-
NORTHEAST SOUTH DAKOTA

CITY           SKY/WX    TMP DP  RH WIND       PRES   REMARKS
ABERDEEN       MOSUNNY   47  38  71 E5        30.05R
WATERTOWN      SUNNY     40  36  86 CALM      30.06R
BROOKINGS      SUNNY     36  36 100 CALM      30.07R
SISSETON         N/A     39  35  86 SE6       30.08S
$$

SDZ017-020-022-023-036>040-048>070-261400-
SOUTHEAST SOUTH DAKOTA

CITY           SKY/WX    TMP DP  RH WIND       PRES   REMARKS
SIOUX FALLS    MOSUNNY   41  38  89 NE3       30.05R
HURON          SUNNY     44  39  82 E7        30.04R
MITCHELL       SUNNY     42  39  89 E8        30.05R
YANKTON        SUNNY     45  37  76 E9        30.03R
$$

ABBREVIATIONS USED IN REMARKS
   TC - TEMPERATURE IN CELSIUS
  WCI - WIND CHILL INDEX
   HX - HEAT INDEX
  VSB - VISIBILITY



USA.gov is the U.S. government's official web portal to all federal, state and local government web resources and services.